Year,Month,Day,Hour,Minute,Value (Times are PST for temperature in C)
2015,11,13,01,08,10.80
2015,11,13,01,09,10.80
2015,11,13,01,10,10.80
2015,11,13,01,11,10.80
2015,11,13,01,12,10.80
2015,11,13,01,13,10.80
2015,11,13,01,14,10.90
2015,11,13,01,15,10.90
2015,11,13,01,16,10.90
2015,11,13,01,17,10.90
2015,11,13,01,18,10.90
2015,11,13,01,19,10.90
2015,11,13,01,20,10.90
2015,11,13,01,21,10.90
2015,11,13,01,22,10.90
2015,11,13,01,23,10.90
2015,11,13,01,24,10.90
2015,11,13,01,25,10.90
2015,11,13,01,26,10.80
2015,11,13,01,27,10.80
2015,11,13,01,28,10.80
2015,11,13,01,29,10.80
2015,11,13,01,30,10.80
2015,11,13,01,31,10.80
2015,11,13,01,32,10.70
2015,11,13,01,33,10.70
2015,11,13,01,34,10.70
2015,11,13,01,35,10.70
2015,11,13,01,36,10.70
2015,11,13,01,37,10.70
2015,11,13,01,38,10.70
2015,11,13,01,39,10.70
2015,11,13,01,40,10.60
2015,11,13,01,41,10.60
2015,11,13,01,42,10.60
2015,11,13,01,43,10.60
2015,11,13,01,44,10.60
2015,11,13,01,45,10.60
2015,11,13,01,46,10.60
2015,11,13,01,47,10.60
2015,11,13,01,48,10.60
2015,11,13,01,49,10.60
2015,11,13,01,50,10.60
2015,11,13,01,51,10.60
2015,11,13,01,52,10.60
2015,11,13,01,53,10.60
2015,11,13,01,54,10.60
2015,11,13,01,55,10.60
2015,11,13,01,56,10.60
2015,11,13,01,57,10.70
2015,11,13,01,58,10.70
2015,11,13,01,59,10.70
2015,11,13,02,00,10.70
2015,11,13,02,01,10.80
2015,11,13,02,02,10.80
2015,11,13,02,03,10.80
2015,11,13,02,04,10.80
2015,11,13,02,05,10.80
2015,11,13,02,06,10.90
2015,11,13,02,07,10.90
2015,11,13,02,08,10.90
2015,11,13,02,09,10.90
2015,11,13,02,10,10.90
2015,11,13,02,11,10.90
2015,11,13,02,12,10.80
2015,11,13,02,13,10.80
2015,11,13,02,14,10.80
2015,11,13,02,15,10.80
2015,11,13,02,16,10.80
2015,11,13,02,17,10.80
2015,11,13,02,18,10.80
2015,11,13,02,19,10.80
2015,11,13,02,20,10.80
2015,11,13,02,21,10.80
2015,11,13,02,22,10.90
2015,11,13,02,23,10.90
2015,11,13,02,24,10.90
2015,11,13,02,25,10.90
2015,11,13,02,26,10.90
2015,11,13,02,27,10.90
2015,11,13,02,28,11.00
2015,11,13,02,29,11.00
2015,11,13,02,30,11.00
2015,11,13,02,31,11.10
2015,11,13,02,32,11.10
2015,11,13,02,33,11.20
2015,11,13,02,34,11.20
2015,11,13,02,35,11.20
2015,11,13,02,36,11.20
2015,11,13,02,37,11.20
2015,11,13,02,38,11.20
2015,11,13,02,39,11.20
2015,11,13,02,40,11.20
2015,11,13,02,41,11.10
2015,11,13,02,42,11.10
2015,11,13,02,43,11.00
2015,11,13,02,44,11.00
2015,11,13,02,45,11.00
2015,11,13,02,46,10.90
2015,11,13,02,47,10.90
2015,11,13,02,48,10.90
2015,11,13,02,49,10.90
2015,11,13,02,50,10.90
2015,11,13,02,51,10.90
2015,11,13,02,52,11.00
2015,11,13,02,53,11.00
2015,11,13,02,54,11.00
2015,11,13,02,55,11.00
2015,11,13,02,56,10.90
2015,11,13,02,57,10.90
2015,11,13,02,58,10.90
2015,11,13,02,59,10.90
2015,11,13,03,00,10.80
2015,11,13,03,01,10.80
2015,11,13,03,02,10.80
2015,11,13,03,03,10.90
2015,11,13,03,04,10.90
2015,11,13,03,05,10.90
2015,11,13,03,06,11.00
2015,11,13,03,07,11.00
2015,11,13,03,08,11.10
2015,11,13,03,09,11.10
2015,11,13,03,10,11.20
2015,11,13,03,11,11.20
2015,11,13,03,12,11.20
2015,11,13,03,13,11.20
2015,11,13,03,14,11.30
2015,11,13,03,15,11.30
2015,11,13,03,16,11.40
2015,11,13,03,17,11.40
2015,11,13,03,18,11.40
2015,11,13,03,19,11.40
2015,11,13,03,20,11.40
2015,11,13,03,21,11.50
2015,11,13,03,22,11.50
2015,11,13,03,23,11.60
2015,11,13,03,24,11.60
2015,11,13,03,25,11.60
2015,11,13,03,26,11.60
2015,11,13,03,27,11.60
2015,11,13,03,28,11.60
2015,11,13,03,29,11.60
2015,11,13,03,30,11.70
2015,11,13,03,31,11.70
2015,11,13,03,32,11.70
2015,11,13,03,33,11.70
2015,11,13,03,34,11.70
2015,11,13,03,35,11.70
2015,11,13,03,36,11.70
2015,11,13,03,37,11.70
2015,11,13,03,38,11.70
2015,11,13,03,39,11.70
2015,11,13,03,40,11.70
2015,11,13,03,41,11.70
2015,11,13,03,42,11.70
2015,11,13,03,43,11.70
2015,11,13,03,44,11.70
2015,11,13,03,45,11.80
2015,11,13,03,46,11.80
2015,11,13,03,47,11.80
2015,11,13,03,48,11.80
2015,11,13,03,49,11.80
2015,11,13,03,50,11.70
2015,11,13,03,51,11.70
2015,11,13,03,52,11.70
2015,11,13,03,53,11.60
2015,11,13,03,54,11.60
2015,11,13,03,55,11.50
2015,11,13,03,56,11.50
2015,11,13,03,57,11.40
2015,11,13,03,58,11.40
2015,11,13,03,59,11.30
2015,11,13,04,00,11.30
2015,11,13,04,01,11.30
2015,11,13,04,02,11.20
2015,11,13,04,03,11.20
2015,11,13,04,04,11.20
2015,11,13,04,05,11.20
2015,11,13,04,06,11.20
2015,11,13,04,07,11.10
2015,11,13,04,08,11.10
2015,11,13,04,09,11.10
2015,11,13,04,10,11.10
2015,11,13,04,11,11.10
2015,11,13,04,12,11.10
2015,11,13,04,13,11.10
2015,11,13,04,14,11.10
2015,11,13,04,15,11.10
2015,11,13,04,16,11.00
2015,11,13,04,17,11.00
2015,11,13,04,18,10.90
2015,11,13,04,19,10.90
2015,11,13,04,20,10.80
2015,11,13,04,21,10.80
2015,11,13,04,22,10.80
2015,11,13,04,23,10.80
2015,11,13,04,24,10.80
2015,11,13,04,25,10.80
2015,11,13,04,26,10.80
2015,11,13,04,27,10.80
2015,11,13,04,28,10.80
2015,11,13,04,29,10.90
2015,11,13,04,30,10.90
2015,11,13,04,31,10.90
2015,11,13,04,32,10.90
2015,11,13,04,33,10.90
2015,11,13,04,34,10.90
2015,11,13,04,35,10.90
2015,11,13,04,36,10.90
2015,11,13,04,37,11.00
2015,11,13,04,38,11.00
2015,11,13,04,39,11.00
2015,11,13,04,40,11.00
2015,11,13,04,41,11.00
2015,11,13,04,42,11.00
2015,11,13,04,43,11.10
2015,11,13,04,44,11.10
2015,11,13,04,45,11.10
2015,11,13,04,46,11.20
2015,11,13,04,47,11.20
2015,11,13,04,48,11.20
2015,11,13,04,49,11.20
2015,11,13,04,50,11.30
2015,11,13,04,51,11.30
2015,11,13,04,52,11.30
2015,11,13,04,53,11.30
2015,11,13,04,54,11.30
2015,11,13,04,55,11.40
2015,11,13,04,56,11.40
2015,11,13,04,57,11.50
2015,11,13,04,58,11.50
2015,11,13,04,59,11.50
2015,11,13,05,00,11.60
2015,11,13,05,01,11.60
2015,11,13,05,02,11.60
2015,11,13,05,03,11.60
2015,11,13,05,04,11.70
2015,11,13,05,05,11.70
2015,11,13,05,06,11.70
2015,11,13,05,07,11.70
2015,11,13,05,08,11.70
2015,11,13,05,09,11.70
2015,11,13,05,10,11.70
2015,11,13,05,11,11.70
2015,11,13,05,12,11.70
2015,11,13,05,13,11.70
2015,11,13,05,14,11.70
2015,11,13,05,15,11.70
2015,11,13,05,16,11.70
2015,11,13,05,17,11.70
2015,11,13,05,18,11.70
2015,11,13,05,19,11.70
2015,11,13,05,20,11.70
2015,11,13,05,21,11.70
2015,11,13,05,22,11.70
2015,11,13,05,23,11.70
2015,11,13,05,24,11.70
2015,11,13,05,25,11.70
2015,11,13,05,26,11.70
2015,11,13,05,27,11.60
2015,11,13,05,28,11.60
2015,11,13,05,29,11.60
2015,11,13,05,30,11.60
2015,11,13,05,31,11.60
2015,11,13,05,32,11.60
2015,11,13,05,33,11.60
2015,11,13,05,34,11.60
2015,11,13,05,35,11.50
2015,11,13,05,36,11.50
2015,11,13,05,37,11.50
2015,11,13,05,38,11.50
2015,11,13,05,39,11.50
2015,11,13,05,40,11.50
2015,11,13,05,41,11.50
2015,11,13,05,42,11.50
2015,11,13,05,43,11.50
2015,11,13,05,44,11.50
2015,11,13,05,45,11.50
2015,11,13,05,46,11.50
2015,11,13,05,47,11.50
2015,11,13,05,48,11.60
2015,11,13,05,49,11.60
2015,11,13,05,50,11.60
2015,11,13,05,51,11.60
2015,11,13,05,52,11.70
2015,11,13,05,53,11.70
2015,11,13,05,54,11.80
2015,11,13,05,55,11.80
2015,11,13,05,56,11.90
2015,11,13,05,57,11.90
2015,11,13,05,58,11.90
2015,11,13,05,59,11.90
2015,11,13,06,00,11.90
2015,11,13,06,01,12.00
2015,11,13,06,02,12.00
2015,11,13,06,03,12.00
2015,11,13,06,04,12.00
2015,11,13,06,05,12.00
2015,11,13,06,06,12.00
2015,11,13,06,07,12.10
2015,11,13,06,08,12.10
2015,11,13,06,09,12.10
2015,11,13,06,10,12.10
2015,11,13,06,11,12.20
2015,11,13,06,12,12.20
2015,11,13,06,13,12.20
2015,11,13,06,14,12.20
2015,11,13,06,15,12.20
2015,11,13,06,16,12.20
2015,11,13,06,17,12.20
2015,11,13,06,18,12.20
2015,11,13,06,19,12.30
2015,11,13,06,20,12.30
2015,11,13,06,21,12.30
2015,11,13,06,22,12.30
2015,11,13,06,23,12.30
2015,11,13,06,24,12.30
2015,11,13,06,25,12.30
2015,11,13,06,26,12.30
2015,11,13,06,27,12.30
2015,11,13,06,28,12.30
2015,11,13,06,29,12.30
2015,11,13,06,30,12.30
2015,11,13,06,31,12.30
2015,11,13,06,32,12.30
2015,11,13,06,33,12.30
2015,11,13,06,34,12.30
2015,11,13,06,35,12.30
2015,11,13,06,36,12.30
2015,11,13,06,37,12.30
2015,11,13,06,38,12.30
2015,11,13,06,39,12.30
2015,11,13,06,40,12.30
2015,11,13,06,41,12.30
2015,11,13,06,42,12.30
2015,11,13,06,43,12.30
2015,11,13,06,44,12.30
2015,11,13,06,45,12.30
2015,11,13,06,46,12.30
2015,11,13,06,47,12.30
2015,11,13,06,48,12.30
2015,11,13,06,49,12.30
2015,11,13,06,50,12.30
2015,11,13,06,51,12.30
2015,11,13,06,52,12.30
2015,11,13,06,53,12.30
2015,11,13,06,54,12.30
2015,11,13,06,55,12.30
2015,11,13,06,56,12.30
2015,11,13,06,57,12.30
2015,11,13,06,58,12.30
2015,11,13,06,59,12.30
2015,11,13,07,00,12.30
2015,11,13,07,01,12.20
2015,11,13,07,02,12.20
2015,11,13,07,03,12.20
2015,11,13,07,04,12.20
2015,11,13,07,05,12.20
2015,11,13,07,06,12.20
2015,11,13,07,07,12.20
2015,11,13,07,08,12.20
2015,11,13,07,09,12.20
2015,11,13,07,10,12.20
2015,11,13,07,11,12.20
2015,11,13,07,12,12.20
2015,11,13,07,13,12.20
2015,11,13,07,14,12.20
2015,11,13,07,15,12.20
2015,11,13,07,16,12.10
2015,11,13,07,17,12.10
2015,11,13,07,18,12.10
2015,11,13,07,19,12.10
2015,11,13,07,20,12.10
2015,11,13,07,21,12.10
2015,11,13,07,22,12.10
2015,11,13,07,23,12.00
2015,11,13,07,24,12.00
2015,11,13,07,25,12.00
2015,11,13,07,26,12.00
2015,11,13,07,27,12.00
2015,11,13,07,28,12.00
2015,11,13,07,29,12.00
2015,11,13,07,30,12.00
2015,11,13,07,31,12.00
2015,11,13,07,32,11.90
2015,11,13,07,33,11.90
2015,11,13,07,34,11.90
2015,11,13,07,35,11.90
2015,11,13,07,36,11.90
2015,11,13,07,37,11.90
2015,11,13,07,38,11.90
2015,11,13,07,39,11.90
2015,11,13,07,40,11.90
2015,11,13,07,41,11.90
2015,11,13,07,42,11.90
2015,11,13,07,43,11.90
2015,11,13,07,44,11.90
2015,11,13,07,45,11.90
2015,11,13,07,46,11.90
2015,11,13,07,47,11.90
2015,11,13,07,48,11.90
2015,11,13,07,49,11.90
2015,11,13,07,50,11.90
2015,11,13,07,51,11.90
2015,11,13,07,52,11.90
2015,11,13,07,53,11.80
2015,11,13,07,54,11.80
2015,11,13,07,55,11.80
2015,11,13,07,56,11.80
2015,11,13,07,57,11.80
2015,11,13,07,58,11.80
2015,11,13,07,59,11.80
2015,11,13,08,00,11.80
2015,11,13,08,01,11.80
2015,11,13,08,02,11.80
2015,11,13,08,03,11.80
2015,11,13,08,04,11.80
2015,11,13,08,05,11.80
2015,11,13,08,06,11.80
2015,11,13,08,07,11.80
2015,11,13,08,08,11.80
2015,11,13,08,09,11.80
2015,11,13,08,10,11.80
2015,11,13,08,11,11.80
2015,11,13,11,34,13.00
2015,11,13,11,35,13.00
2015,11,13,11,36,13.00
2015,11,13,11,37,13.00
2015,11,13,11,38,13.00
2015,11,13,11,39,13.00
2015,11,13,11,40,13.00
2015,11,13,11,41,13.00
2015,11,13,11,42,13.00
2015,11,13,11,43,13.00
2015,11,13,11,44,13.00
2015,11,13,11,45,13.00
2015,11,13,11,46,13.00
2015,11,13,11,47,13.00
2015,11,13,11,48,13.00
2015,11,13,11,49,13.00
2015,11,13,11,50,13.00
2015,11,13,11,51,13.00
2015,11,13,11,52,13.00
2015,11,13,11,53,13.00
2015,11,13,11,54,13.00
2015,11,13,11,55,13.00
2015,11,13,11,56,13.00
2015,11,13,18,26,10.10
2015,11,13,18,27,10.10
2015,11,13,18,28,10.10
2015,11,13,18,29,10.10
2015,11,13,18,30,10.10
2015,11,13,18,31,10.10
2015,11,13,18,32,10.00
2015,11,13,18,33,10.00
2015,11,13,18,34,10.00
2015,11,13,18,35,9.90
2015,11,13,18,36,9.90
2015,11,13,18,37,9.90
2015,11,13,18,38,9.80
2015,11,13,18,39,9.80
2015,11,13,18,40,9.80
2015,11,13,18,41,9.80
2015,11,13,18,42,9.70
2015,11,13,18,43,9.70
2015,11,13,18,44,9.70
2015,11,13,18,45,9.70
2015,11,13,18,46,9.60
2015,11,13,18,47,9.60
2015,11,13,18,48,9.60
2015,11,13,18,49,9.60
2015,11,13,18,50,9.60
2015,11,13,18,51,9.50
2015,11,13,18,52,9.50
2015,11,13,18,53,9.50
2015,11,13,18,54,9.40
2015,11,13,18,55,9.40
2015,11,13,18,56,9.40
2015,11,13,18,57,9.30
2015,11,13,18,58,9.30
2015,11,13,18,59,9.20
2015,11,13,19,00,9.20
2015,11,13,19,01,9.20
2015,11,13,19,02,9.10
2015,11,13,19,03,9.10
2015,11,13,19,04,9.10
2015,11,13,19,05,9.10
2015,11,13,19,06,9.10
2015,11,13,19,07,9.10
2015,11,13,19,08,9.10
2015,11,13,19,09,9.10
2015,11,13,19,10,9.00
2015,11,13,19,11,9.00
2015,11,13,19,12,9.00
2015,11,13,19,13,9.10
2015,11,13,19,14,9.10
2015,11,13,19,15,9.10
2015,11,13,19,16,9.10
2015,11,13,19,17,9.10
2015,11,13,19,18,9.10
2015,11,13,19,19,9.20
2015,11,13,19,20,9.20
2015,11,13,19,21,9.20
2015,11,13,19,22,9.20
2015,11,13,19,23,9.20
2015,11,13,19,24,9.20
2015,11,13,19,25,9.20
2015,11,13,19,26,9.20
2015,11,13,19,27,9.20
2015,11,13,19,28,9.20
2015,11,13,19,29,9.20
2015,11,13,19,30,9.20
2015,11,13,19,31,9.20
2015,11,13,19,32,9.20
2015,11,13,19,33,9.20
2015,11,13,19,34,9.20
2015,11,13,19,35,9.20
2015,11,13,19,36,9.20
2015,11,13,19,37,9.10
2015,11,13,19,38,9.10
2015,11,13,19,39,9.10
2015,11,13,19,40,9.10
2015,11,13,19,41,9.10
2015,11,13,19,42,9.10
2015,11,13,19,43,9.10
2015,11,13,19,44,9.10
2015,11,13,19,45,9.10
2015,11,13,19,46,9.10
2015,11,13,19,47,9.10
2015,11,13,19,48,9.00
2015,11,13,19,49,9.00
2015,11,13,19,50,9.00
2015,11,13,19,51,9.00
2015,11,13,19,52,9.00
2015,11,13,19,53,9.00
2015,11,13,19,54,9.00
2015,11,13,19,55,9.00
2015,11,13,19,56,9.00
2015,11,13,19,57,9.00
2015,11,13,19,58,9.00
2015,11,13,19,59,9.00
2015,11,13,20,00,9.00
2015,11,13,20,01,9.00
2015,11,13,20,02,9.00
2015,11,13,20,03,9.00
2015,11,13,20,04,9.00
2015,11,13,20,05,9.00
2015,11,13,20,06,8.90
2015,11,13,20,07,8.90
2015,11,13,20,08,8.90
2015,11,13,20,09,8.90
2015,11,13,20,10,8.90
2015,11,13,20,11,8.90
2015,11,13,20,12,8.90
2015,11,13,20,13,8.90
2015,11,13,20,14,8.90
2015,11,13,20,15,8.90
2015,11,13,20,16,8.90
2015,11,13,20,17,8.90
2015,11,13,20,18,8.90
2015,11,13,20,19,8.90
2015,11,13,20,20,8.90
2015,11,13,20,21,8.90
2015,11,13,20,22,8.90
2015,11,13,20,23,8.90
2015,11,13,20,24,8.90
2015,11,13,20,25,8.90
2015,11,13,20,26,8.90
2015,11,13,20,27,8.90
2015,11,13,20,28,8.90
2015,11,13,20,29,8.90
2015,11,13,20,30,8.90
2015,11,13,20,31,8.90
2015,11,13,20,32,8.90
2015,11,13,20,33,8.90
2015,11,13,20,34,8.90
2015,11,13,20,35,8.90
2015,11,13,20,36,8.90
2015,11,13,20,37,8.90
2015,11,13,20,38,8.90
2015,11,13,20,39,8.90
2015,11,13,20,40,8.90
2015,11,13,20,41,8.90
2015,11,13,20,42,8.90
2015,11,13,20,43,8.90
2015,11,13,20,44,8.90
2015,11,13,20,45,8.90
2015,11,13,20,46,8.90
2015,11,13,20,47,8.90
2015,11,13,20,48,8.90
2015,11,13,20,49,8.90
2015,11,13,20,50,9.00
2015,11,13,20,51,9.00
2015,11,13,20,52,9.00
2015,11,13,20,53,9.00
2015,11,13,20,54,9.00
2015,11,13,20,55,9.00
2015,11,13,20,56,9.00
2015,11,13,20,57,9.00
2015,11,13,20,58,9.00
2015,11,13,20,59,9.00
2015,11,13,21,00,9.00
2015,11,13,21,01,9.00
2015,11,13,21,02,9.00
2015,11,13,21,03,9.00
2015,11,13,21,04,9.00
2015,11,13,21,05,9.00
2015,11,13,21,06,9.10
2015,11,13,21,07,9.10
2015,11,13,21,08,9.10
2015,11,13,21,09,9.10
2015,11,13,21,10,9.10
2015,11,13,21,11,9.10
2015,11,13,21,12,9.10
2015,11,13,21,13,9.10
2015,11,13,21,14,9.10
2015,11,13,21,15,9.20
2015,11,13,21,16,9.20
2015,11,13,21,17,9.20
2015,11,13,21,18,9.20
2015,11,13,21,19,9.10
2015,11,13,21,20,9.10
2015,11,13,21,21,9.10
2015,11,13,21,22,9.10
2015,11,13,21,23,9.10
2015,11,13,21,24,9.20
2015,11,13,21,25,9.20
2015,11,13,21,26,9.20
2015,11,13,21,27,9.20
2015,11,13,21,28,9.20
2015,11,13,21,29,9.20
2015,11,13,21,30,9.30
2015,11,13,21,31,9.30
2015,11,13,21,32,9.30
2015,11,13,21,33,9.30
2015,11,13,21,34,9.40
2015,11,13,21,35,9.40
2015,11,13,21,36,9.40
2015,11,13,21,37,9.40
2015,11,13,21,38,9.50
2015,11,13,21,39,9.50
2015,11,13,21,40,9.50
2015,11,13,21,41,9.50
2015,11,13,21,42,9.60
2015,11,13,21,43,9.60
2015,11,13,21,44,9.60
2015,11,13,21,45,9.60
2015,11,13,21,46,9.60
2015,11,13,21,47,9.60
2015,11,13,21,48,9.60
2015,11,13,21,49,9.60
2015,11,13,21,50,9.60
2015,11,13,21,51,9.60
2015,11,13,21,52,9.70
2015,11,13,21,53,9.70
2015,11,13,21,54,9.70
2015,11,13,21,55,9.70
2015,11,13,21,56,9.70
2015,11,13,21,57,9.70
2015,11,13,21,58,9.70
2015,11,13,21,59,9.70
2015,11,13,22,00,9.70
2015,11,13,22,01,9.70
2015,11,13,22,02,9.70
2015,11,13,22,03,9.70
2015,11,13,22,04,9.70
2015,11,13,22,05,9.70
2015,11,13,22,06,9.70
2015,11,13,22,07,9.70
2015,11,13,22,08,9.70
2015,11,13,22,09,9.70
2015,11,13,22,10,9.80
2015,11,13,22,11,9.80
2015,11,13,22,12,9.80
2015,11,13,22,13,9.80
2015,11,13,22,14,9.80
2015,11,13,22,15,9.80
2015,11,13,22,16,9.80
2015,11,13,22,17,9.80
2015,11,13,22,18,9.80
2015,11,13,22,19,9.80
2015,11,13,22,20,9.80
2015,11,13,22,21,9.80
2015,11,13,22,22,9.70
2015,11,13,22,23,9.70
2015,11,13,22,24,9.70
2015,11,13,22,25,9.70
2015,11,13,22,26,9.70
2015,11,13,22,27,9.70
2015,11,13,22,28,9.70
2015,11,13,22,29,9.70
2015,11,13,22,30,9.70
2015,11,13,22,31,9.70
2015,11,13,22,32,9.60
2015,11,13,22,33,9.60
2015,11,13,22,34,9.60
2015,11,13,22,35,9.60
2015,11,13,22,36,9.60
2015,11,13,22,37,9.60
2015,11,13,22,38,9.60
2015,11,13,22,39,9.60
2015,11,13,22,40,9.60
2015,11,13,22,41,9.60
2015,11,13,22,42,9.60
2015,11,13,22,43,9.60
2015,11,13,22,44,9.60
2015,11,13,22,45,9.70
2015,11,13,22,46,9.60
2015,11,13,22,47,9.70
2015,11,13,22,48,9.70
2015,11,13,22,49,9.70
2015,11,13,22,50,9.70
2015,11,13,22,51,9.70
2015,11,13,22,52,9.70
2015,11,13,22,53,9.70
2015,11,13,22,54,9.70
2015,11,13,22,55,9.70
2015,11,13,22,56,9.70
2015,11,13,22,57,9.70
2015,11,13,22,58,9.70
2015,11,13,22,59,9.70
2015,11,13,23,00,9.70
2015,11,13,23,01,9.70
2015,11,13,23,02,9.70
2015,11,13,23,03,9.70
2015,11,13,23,04,9.70
2015,11,13,23,05,9.70
2015,11,13,23,06,9.70
2015,11,13,23,07,9.70
2015,11,13,23,08,9.60
2015,11,13,23,09,9.60
2015,11,13,23,10,9.60
2015,11,13,23,11,9.60
2015,11,13,23,12,9.60
2015,11,13,23,13,9.60
2015,11,13,23,14,9.50
2015,11,13,23,15,9.50
2015,11,13,23,16,9.50
2015,11,13,23,17,9.40
2015,11,13,23,18,9.40
2015,11,13,23,19,9.40
2015,11,13,23,20,9.40
2015,11,13,23,21,9.40
2015,11,13,23,22,9.30
2015,11,13,23,23,9.30
2015,11,13,23,24,9.30
2015,11,13,23,25,9.30
2015,11,13,23,26,9.30
2015,11,13,23,27,9.30
2015,11,13,23,28,9.30
2015,11,13,23,29,9.30
2015,11,13,23,30,9.30
2015,11,13,23,31,9.20
2015,11,13,23,32,9.20
2015,11,13,23,33,9.20
2015,11,13,23,34,9.20
2015,11,13,23,35,9.20
2015,11,13,23,36,9.20
2015,11,13,23,37,9.20
2015,11,13,23,38,9.20
2015,11,13,23,39,9.20
2015,11,13,23,40,9.20
2015,11,13,23,41,9.20
2015,11,13,23,42,9.20
2015,11,13,23,43,9.20
2015,11,13,23,44,9.20
2015,11,13,23,45,9.30
2015,11,13,23,46,9.30
2015,11,13,23,47,9.30
2015,11,13,23,48,9.30
2015,11,13,23,49,9.30
2015,11,13,23,50,9.40
2015,11,13,23,51,9.40
2015,11,13,23,52,9.40
2015,11,13,23,53,9.40
2015,11,13,23,54,9.40
2015,11,13,23,55,9.40
2015,11,13,23,56,9.40
2015,11,13,23,57,9.40
2015,11,13,23,58,9.40
2015,11,13,23,59,9.40
